TimeEST,TemperatureF,Dew PointF,Humidity,Sea Level PressureIn,VisibilityMPH,Wind Direction,Wind SpeedMPH,Gust SpeedMPH,PrecipitationIn,Events,Conditions,WindDirDegrees,DateUTC
12:56 AM,30.0,21.0,69,30.66,10.0,Calm,Calm,-,N/A,,Clear,0,2013-11-13 05:56:00
1:56 AM,28.9,21.0,72,30.64,10.0,North,4.6,-,N/A,,Clear,360,2013-11-13 06:56:00
2:56 AM,28.0,21.0,75,30.64,10.0,North,6.9,-,N/A,,Clear,350,2013-11-13 07:56:00
3:56 AM,27.0,19.9,75,30.65,10.0,NNW,5.8,-,N/A,,Partly Cloudy,340,2013-11-13 08:56:00
4:56 AM,26.1,21.0,81,30.67,10.0,NNW,4.6,-,N/A,,Partly Cloudy,330,2013-11-13 09:56:00
5:56 AM,27.0,19.9,75,30.68,10.0,North,3.5,-,N/A,,Clear,350,2013-11-13 10:56:00
6:56 AM,26.1,19.9,78,30.68,10.0,Calm,Calm,-,N/A,,Clear,0,2013-11-13 11:56:00
7:56 AM,26.1,21.0,81,30.69,10.0,West,3.5,-,N/A,,Clear,280,2013-11-13 12:56:00
8:56 AM,30.0,23.0,75,30.70,9.0,Calm,Calm,-,N/A,,Clear,0,2013-11-13 13:56:00
9:56 AM,30.9,23.0,72,30.70,10.0,Calm,Calm,-,N/A,,Clear,0,2013-11-13 14:56:00
10:56 AM,35.1,21.9,59,30.69,10.0,North,-9999.0,-,N/A,,Clear,0,2013-11-13 15:56:00
11:56 AM,37.9,21.0,51,30.66,10.0,West,8.1,-,N/A,,Partly Cloudy,260,2013-11-13 16:56:00
12:56 PM,39.0,21.0,49,30.62,10.0,Variable,3.5,-,N/A,,Partly Cloudy,0,2013-11-13 17:56:00
1:56 PM,41.0,19.9,43,30.59,10.0,Calm,Calm,-,N/A,,Partly Cloudy,0,2013-11-13 18:56:00
2:56 PM,42.1,19.0,40,30.57,10.0,SW,4.6,-,N/A,,Partly Cloudy,230,2013-11-13 19:56:00
3:56 PM,43.0,18.0,37,30.55,10.0,SSW,5.8,-,N/A,,Partly Cloudy,200,2013-11-13 20:56:00
4:56 PM,42.1,19.0,40,30.52,10.0,SW,6.9,-,N/A,,Partly Cloudy,220,2013-11-13 21:56:00
5:56 PM,39.0,19.0,45,30.51,10.0,WSW,3.5,-,N/A,,Partly Cloudy,240,2013-11-13 22:56:00
6:56 PM,37.9,19.0,47,30.50,10.0,South,4.6,-,N/A,,Clear,190,2013-11-13 23:56:00
7:56 PM,37.0,18.0,46,30.49,10.0,South,4.6,-,N/A,,Clear,170,2013-11-14 00:56:00
8:56 PM,35.1,19.9,54,30.48,10.0,South,3.5,-,N/A,,Clear,190,2013-11-14 01:56:00
9:56 PM,35.1,19.0,52,30.48,10.0,South,5.8,-,N/A,,Clear,180,2013-11-14 02:56:00
10:56 PM,33.1,19.9,59,30.46,10.0,SE,4.6,-,N/A,,Clear,130,2013-11-14 03:56:00
11:56 PM,34.0,19.9,56,30.44,10.0,South,5.8,-,N/A,,Clear,180,2013-11-14 04:56:00